{"data":{"norad_id":59378,"intl_designator":"2024-062E","name":"STARLINK-31710","alt_names":[],"object_type":"PAYLOAD","status":"ACTIVE","operator":null,"country":"US","launch_date":"2024-04-02","launch_site_code":"AFWTR","launch_vehicle":null,"mission":null,"orbit_class":"UNKNOWN","rcs_meters":null,"size_class":null,"mass_kg":null,"dimensions":null,"purposes":["comms"],"wikipedia_slug":null,"has_3d_model":false,"image_url":null,"decayed_at":null,"tle_current":{"epoch":"2026-09-21T19:08:01.351104Z","epoch_age_seconds":50181,"freshness":"FRESH","line1":"1 59378U 24062E   26264.79723786  .00003662  00000+0  11942-3 0  9991","line2":"2 59378  53.1612  61.4088 0001172  70.8710 289.2419 15.34413733139702","mean_motion":15.34413733,"eccentricity":0.0001172,"inclination_deg":53.1612,"raan_deg":61.4088,"arg_perigee_deg":70.871,"mean_anomaly_deg":289.2419,"bstar":0.00011942,"rev_number":13970,"period_min":93.846918144078,"perigee_km":461.86068144904,"apogee_km":463.46416483383,"semimajor_km":6840.7994231414,"source":"CELESTRAK","updated_at":"2026-09-22T09:00:48.908662Z"}}}